Location: ?????????
(53.2086°N, 54.0693°E)
Time: 04:31:18
(UTC+00:00)

Cosmos 2228 Rocket - Pass Details

Date: 08 December 2019
Orbit: 617 x 653 km, 82.5° (Epoch: 28 January)

Event Time Altitude Azimuth Distance (km) Brightness Sun altitude
Rises 13:03:36 0° 197° (SSW) 2,957 7.3 -8.0°
Reaches altitude 10° 13:05:51 10° 200° (SSW) 2,054 6.5 -8.3°
Maximum altitude 13:10:24 66° 283° (WNW) 716 3.6 -8.9°
Drops below altitude 10° 13:15:00 10° 7° (N) 2,077 5.4 -9.5°
Sets 13:17:17 0° 10° (N) 2,992 6.2 -9.8°
